Tracking 19176 objects as of 26-May-2018
HD Live streaming from Space Station
objects crossing your sky now

OPS 2366 (TRANSIT 14)

Track OPS 2366 (TRANSIT 14) now!
10-day predictions
OPS 2366 (TRANSIT 14) is classified as:


NORAD ID: 2401
Int'l Code: 1966-076A
Perigee: 1,043.9 km
Apogee: 1,090.6 km
Inclination: 88.9 °
Period: 106.4 minutes
Semi major axis: 7438 km
RCS: 1.5965 m2 (large)
Launch date: August 18, 1966
Source: United States (US)
Launch site: AIR FORCE WESTERN TEST RANGE (AFWTR)
aabbcc
Your satellite tracking list
Your tracking list is empty




NASA's NSSDC Master Catalog

Two Line Element Set (TLE):
1 02401U 66076A   18145.31485052  .00000028  00000-0  22788-4 0  9990
2 02401  88.8594  46.3654 0031437 206.3378 275.9185 13.53312245553140
Source of the keplerian elements: AFSPC